Regional Weather Roundup
Issued by NWS

Home | Current Version | Previous Version | Graphics & Text | Print | Product List | Glossary On
Versions: 1 2 3 4 5 6 7 8 9 10 11 12 13 14 15 16 17 18 19 20 21 22 23 24 25 26 27 28 29 30 31 32 33 34 35 36 37 38 39 40 41 42 43 44 45 46 47 48 49 50
000
ASUS43 KIND 270609
RWRIN

WEATHER ROUNDUP FOR INDIANA
NATIONAL WEATHER SERVICE INDIANAPOLIS IN
200 AM EDT FRI APR 27 2018

NOTE: "FAIR" INDICATES FEW OR NO CLOUDS BELOW 12,000 FEET WITH NO
SIGNIFICANT WEATHER AND/OR OBSTRUCTIONS TO VISIBILITY.

* - STATION DOES NOT REPORT WEATHER SUCH AS PRECIPITATION OR FOG.

+ - STATION NOT QUALITY CONTROLLED BY THE NATIONAL WEATHER SERVICE.
    USE DATA WITH CAUTION...ESPECIALLY DEWPOINT AND RELATIVE
    HUMIDITY OBSERVATIONS.

INZ001>003-010>013-019-020-270700-
NORTHWEST INDIANA

CITY           SKY/WX    TMP DP  RH WIND       PRES   REMARKS
GARY /AIRPORT/ FAIR      52  17  24 S5        29.80F
KNOX *+        FAIR      41  32  70 S3        29.81F
LA PORTE +     FAIR      39  29  67 CALM      29.81F
6HR MIN TEMP:  39; 6HR MAX TEMP:  56;

MICHIGAN CITY+ FAIR      43  27  52 CALM      29.80F
MONTICELLO +   FAIR      47  34  60 CALM      29.82F
6HR MIN TEMP:  46; 6HR MAX TEMP:  64;

RENSSELAER +   FAIR      45  21  39 CALM      29.82F

$$

LMZ046-743>745-270700-
SOUTHERN LAKE MICHIGAN

STATION/POSITION TIME  TEMP    WIND        PRES    WAVE
                       AIR SEA DIR/SP/G            HT
                 (UTC) (F)     (DEG/KT/KT) (MB)    (FT)
BURNS HARBOR     0540   52     180/  6/  9 1009.5F
MICHIGAN CITY    0540   55     150/ 12/ 15   N/A

$$

INZ004-005-014>016-021>024-270700-
NORTH CENTRAL INDIANA

CITY           SKY/WX    TMP DP  RH WIND       PRES   REMARKS
GOSHEN         FAIR      43  36  76 S3        29.80F
6HR MIN TEMP:  40; 6HR MAX TEMP:  59;

LOGANSPORT +   FAIR      41  34  75 S3        29.83F
PERU/GRISSOM   FAIR      47  37  68 SE3       29.81F
6HR MIN TEMP:  46; 6HR MAX TEMP:  62;

ROCHESTER +    FAIR      46  36  66 CALM      29.82F
SOUTH BEND     FAIR      42  24  49 CALM      29.81F
6HR MIN TEMP:  41; 6HR MAX TEMP:  56;

WARSAW +       FAIR      41  36  81 CALM      29.81F

$$

INZ006>009-017-018-025>027-270700-
NORTHEAST INDIANA

CITY           SKY/WX    TMP DP  RH WIND       PRES   REMARKS
AUBURN +       FAIR      43  36  75 CALM      29.82F
FORT WAYNE     MOCLDY    49  37  63 CALM      29.82F
6HR MIN TEMP:  48; 6HR MAX TEMP:  63;

HUNTINGTON +   FAIR      45  36  70 CALM      29.82F
6HR MIN TEMP:  45; 6HR MAX TEMP:  60;

KENDALLVILLE + FAIR      45  37  74 SW3       29.81F

$$

INZ028-029-035-036-043>045-051>053-270700-
WEST CENTRAL INDIANA

CITY           SKY/WX    TMP DP  RH WIND       PRES   REMARKS
CRAWFORDSVL +  FAIR      40  37  88 CALM      29.84F
6HR MIN TEMP:  40; 6HR MAX TEMP:  60;

GREENCASTLE +  FAIR      43  32  65 CALM      29.85S
LAFAYETTE      FAIR      44  35  70 CALM      29.83F
6HR MIN TEMP:  43; 6HR MAX TEMP:  61;

TERRE HAUTE    FAIR      44  38  79 CALM      29.85F
6HR MIN TEMP:  44; 6HR MAX TEMP:  64;


$$

INZ030>032-037>040-046>048-054>057-064-065-270700-
CENTRAL INDIANA

CITY           SKY/WX    TMP DP  RH WIND       PRES   REMARKS
FRANKFORT +    FAIR      45  36  70 CALM      29.85F
6HR MIN TEMP:  43; 6HR MAX TEMP:  64;

GREENWOOD *+   FAIR      43  39  85 CALM      29.84F
6HR MIN TEMP:  43; 6HR MAX TEMP:  60;

INDIANAPOLIS   FAIR      49  34  56 SW5       29.83F
6HR MIN TEMP:  48; 6HR MAX TEMP:  60;

-EAGLE CREEK   FAIR      50  41  71 CALM      29.82F
6HR MIN TEMP:  50; 6HR MAX TEMP:  62;

KOKOMO +       FAIR      44  37  76 SE3       29.83F
6HR MIN TEMP:  44; 6HR MAX TEMP:  62;

MARION +       FAIR      45  37  71 CALM      29.83F
MT COMFORT *+  FAIR      45  41  87 CALM      29.83F
SHELBYVILLE    FAIR      49  37  63 CALM      29.82F
6HR MIN TEMP:  48; 6HR MAX TEMP:  64;

ZIONSVILLE +   FAIR      42  38  87 CALM      29.84F
6HR MIN TEMP:  42; 6HR MAX TEMP:  60;


$$

INZ033-034-041-042-049-050-058-059-270700-
EAST CENTRAL INDIANA

CITY           SKY/WX    TMP DP  RH WIND       PRES   REMARKS
MUNCIE         FAIR      47  37  68 W5        29.83F
6HR MIN TEMP:  47; 6HR MAX TEMP:  63;

RICHMOND +     FAIR      46  36  66 CALM      29.82F

$$

INZ060-061-067>069-081>083-085>088-270700-
SOUTHWEST INDIANA

CITY           SKY/WX    TMP DP  RH WIND       PRES   REMARKS
EVANSVILLE     FAIR      47  43  86 SW3       29.87F
6HR MIN TEMP:  47; 6HR MAX TEMP:  65;

HUNTINGBURG +  FAIR      48  35  60 CALM      29.86F
6HR MIN TEMP:  47; 6HR MAX TEMP:  61;

WASHINGTON +   FAIR      47  35  60 CALM      29.85F
6HR MIN TEMP:  46; 6HR MAX TEMP:  63;


$$

INZ062-063-066-070>080-084-089>092-270700-
SOUTH CENTRAL AND SOUTHEAST INDIANA

CITY           SKY/WX    TMP DP  RH WIND       PRES   REMARKS
BATESVILLE +   CLEAR     45  39  81 MISG      29.82F
BEDFORD +      FAIR      50  27  40 CALM      29.85F
BLOOMINGTON    FAIR      44  37  76 CALM      29.84F
6HR MIN TEMP:  43; 6HR MAX TEMP:  60;

FRENCH LICK *+ FAIR      52  23  32 CALM      29.85F
MADISON *+     FAIR      45  32  61 CALM      29.85F
NORTH VERNON + FAIR      45  37  76 CALM      29.84F
SEYMOUR +      FAIR      48  36  61 CALM      29.84F

$$





USA.gov is the U.S. government's official web portal to all federal, state and local government web resources and services.